TimeEST,TemperatureF,Dew PointF,Humidity,Sea Level PressureIn,VisibilityMPH,Wind Direction,Wind SpeedMPH,Gust SpeedMPH,PrecipitationIn,Events,Conditions,WindDirDegrees,DateUTC
12:52 AM,37.0,30.9,79,29.96,8.0,SW,18.4,26.5,N/A,,Scattered Clouds,230,2014-02-18 05:52:00
1:52 AM,36.0,30.0,79,29.96,8.0,SW,16.1,-,N/A,,Clear,230,2014-02-18 06:52:00
2:52 AM,36.0,30.0,79,29.98,9.0,SW,12.7,20.7,N/A,,Clear,230,2014-02-18 07:52:00
3:52 AM,36.0,28.9,76,29.99,10.0,SW,13.8,20.7,N/A,,Clear,230,2014-02-18 08:52:00
4:52 AM,36.0,28.0,73,30.02,10.0,SW,10.4,-,N/A,,Clear,220,2014-02-18 09:52:00
5:52 AM,36.0,28.0,73,30.06,10.0,WSW,9.2,-,N/A,,Partly Cloudy,250,2014-02-18 10:52:00
6:52 AM,35.1,27.0,72,30.08,10.0,WSW,8.1,-,N/A,,Clear,240,2014-02-18 11:52:00
7:52 AM,35.1,27.0,72,30.10,10.0,SW,9.2,-,N/A,,Clear,230,2014-02-18 12:52:00
8:52 AM,37.9,27.0,65,30.12,10.0,SW,9.2,-,N/A,,Clear,230,2014-02-18 13:52:00
9:52 AM,41.0,27.0,57,30.13,10.0,SW,10.4,18.4,N/A,,Clear,230,2014-02-18 14:52:00
10:52 AM,43.0,27.0,53,30.13,10.0,SW,11.5,-,N/A,,Clear,220,2014-02-18 15:52:00
11:52 AM,43.0,28.9,58,30.11,10.0,South,10.4,-,N/A,,Clear,170,2014-02-18 16:52:00
12:52 PM,45.0,28.9,53,30.07,10.0,South,11.5,-,N/A,,Partly Cloudy,170,2014-02-18 17:52:00
1:52 PM,46.9,28.9,50,30.04,10.0,South,11.5,-,N/A,,Mostly Cloudy,180,2014-02-18 18:52:00
2:52 PM,48.9,28.0,44,30.02,10.0,South,10.4,-,N/A,,Mostly Cloudy,170,2014-02-18 19:52:00
3:52 PM,48.9,28.0,44,29.99,10.0,South,9.2,-,N/A,,Overcast,170,2014-02-18 20:52:00
4:52 PM,46.0,30.9,56,29.95,10.0,South,9.2,-,N/A,,Overcast,170,2014-02-18 21:52:00
5:52 PM,44.1,30.0,58,29.92,10.0,SSE,10.4,-,N/A,,Overcast,160,2014-02-18 22:52:00
6:52 PM,42.1,30.0,62,29.90,10.0,SSE,10.4,-,N/A,,Overcast,160,2014-02-18 23:52:00
7:52 PM,43.0,28.9,58,29.90,10.0,South,8.1,-,N/A,,Mostly Cloudy,180,2014-02-19 00:52:00
8:52 PM,44.1,27.0,51,29.88,10.0,South,6.9,-,N/A,,Partly Cloudy,180,2014-02-19 01:52:00
9:52 PM,41.0,28.0,60,29.86,10.0,South,10.4,-,N/A,,Scattered Clouds,170,2014-02-19 02:52:00
10:52 PM,43.0,28.0,56,29.83,10.0,South,10.4,-,N/A,,Scattered Clouds,180,2014-02-19 03:52:00
11:52 PM,46.0,28.0,50,29.81,10.0,South,11.5,-,N/A,,Mostly Cloudy,180,2014-02-19 04:52:00